| time (UTC) | temp C | wind direction | speed KPH | gust KPH | rain 1hr cm | rain 24hr cm | rain mn cm | humidity % | barometer mb |
| 20260902033107 | 15 | 0 | 0.0 | 0.0 | 0.00 | 0.00 | 0.00 | 92 | 1014.5 |
| 20260902031608 | 15 | 0 | 0.0 | 0.0 | 0.00 | 0.00 | 0.00 | 91 | 1014.5 |
| 20260902030051 | 15 | 0 | 0.0 | 0.0 | 0.00 | 0.00 | 0.00 | 90 | 1014.6 |
| 20260902024611 | 16 | 0 | 0.0 | 0.0 | 0.00 | 0.00 | 0.00 | 89 | 1014.5 |
| 20260902023058 | 16 | 0 | 0.0 | 0.0 | 0.00 | 0.00 | 0.00 | 89 | 1014.4 |
| 20260902021553 | 16 | 0 | 0.0 | 0.0 | 0.00 | 0.00 | 0.00 | 88 | 1014.2 |
| 20260902020059 | 17 | 0 | 0.0 | 0.0 | 0.00 | 0.00 | 0.00 | 87 | 1014.1 |
| 20260902014604 | 17 | 0 | 0.0 | 0.0 | 0.00 | 0.00 | 0.00 | 85 | 1013.9 |
| 20260902013059 | 18 | 0 | 0.0 | 0.0 | 0.00 | 0.00 | 0.00 | 81 | 1013.8 |
| 20260902011556 | 18 | 0 | 0.0 | 1.6 | 0.00 | 0.00 | 0.00 | 80 | 1013.6 |
| 20260902010105 | 20 | 0 | 0.0 | 3.2 | 0.00 | 0.00 | 0.00 | 77 | 1013.4 |
| 20260902004603 | 20 | 0 | 0.0 | 4.8 | 0.00 | 0.00 | 0.00 | 75 | 1013.4 |
| 20260902003100 | 20 | 0 | 0.0 | 0.0 | 0.00 | 0.00 | 0.00 | 75 | 1013.5 |
| 20260902001557 | 21 | 0 | 0.0 | 0.0 | 0.00 | 0.00 | 0.00 | 72 | 1013.5 |
| 20260901234613 | 22 | 0 | 0.0 | 3.2 | 0.00 | 0.00 | 0.00 | 69 | 1013.4 |
| 20260901233104 | 22 | 0 | 0.0 | 6.4 | 0.00 | 0.00 | 0.00 | 67 | 1013.4 |
| 20260901231554 | 22 | 0 | 1.6 | 6.4 | 0.00 | 0.00 | 0.00 | 63 | 1013.3 |
| 20260901230105 | 23 | 251 | 1.6 | 11.3 | 0.00 | 0.00 | 0.00 | 60 | 1013.1 |
| 20260901224601 | 23 | 0 | 1.6 | 12.9 | 0.00 | 0.00 | 0.00 | 58 | 1013.1 |
| 20260901223055 | 24 | 218 | 3.2 | 12.9 | 0.00 | 0.00 | 0.00 | 56 | 1013.1 |
| 20260901221554 | 23 | 224 | 3.2 | 19.3 | 0.00 | 0.00 | 0.00 | 58 | 1013.0 |
| 20260901220118 | 24 | 30 | 4.8 | 17.7 | 0.00 | 0.00 | 0.00 | 55 | 1012.9 |
| 20260901214557 | 24 | 0 | 4.8 | 16.1 | 0.00 | 0.00 | 0.00 | 54 | 1013.0 |
| 20260901213112 | 25 | 261 | 4.8 | 19.3 | 0.00 | 0.00 | 0.00 | 54 | 1012.8 |
| 20260901211553 | 25 | 271 | 6.4 | 22.5 | 0.00 | 0.00 | 0.00 | 55 | 1012.9 |
| 20260901210051 | 25 | 217 | 8.0 | 17.7 | 0.00 | 0.00 | 0.00 | 52 | 1013.0 |
| 20260901204602 | 24 | 252 | 8.0 | 25.7 | 0.00 | 0.00 | 0.00 | 54 | 1012.9 |
| 20260901203106 | 24 | 202 | 3.2 | 24.1 | 0.00 | 0.00 | 0.00 | 54 | 1013.2 |
| 20260901201557 | 25 | 250 | 8.0 | 25.7 | 0.00 | 0.00 | 0.00 | 51 | 1013.0 |
| 20260901200104 | 25 | 258 | 6.4 | 25.7 | 0.00 | 0.00 | 0.00 | 53 | 1013.0 |
| 20260901194605 | 25 | 249 | 4.8 | 24.1 | 0.00 | 0.00 | 0.00 | 54 | 1013.1 |
| 20260901193108 | 25 | 298 | 9.7 | 25.7 | 0.00 | 0.00 | 0.00 | 52 | 1013.2 |
| 20260901191606 | 25 | 222 | 4.8 | 17.7 | 0.00 | 0.00 | 0.00 | 54 | 1013.1 |
| 20260901184603 | 24 | 45 | 1.6 | 17.7 | 0.00 | 0.00 | 0.00 | 56 | 1013.4 |
| 20260901183055 | 25 | 225 | 4.8 | 24.1 | 0.00 | 0.00 | 0.00 | 56 | 1013.4 |
| 20260901181607 | 24 | 290 | 4.8 | 19.3 | 0.00 | 0.00 | 0.00 | 56 | 1013.5 |
| 20260901180105 | 24 | 258 | 6.4 | 22.5 | 0.00 | 0.00 | 0.00 | 57 | 1013.5 |
| 20260901174603 | 24 | 180 | 8.0 | 24.1 | 0.00 | 0.00 | 0.00 | 55 | 1013.5 |
| 20260901173058 | 23 | 137 | 6.4 | 24.1 | 0.00 | 0.00 | 0.00 | 56 | 1013.6 |
| 20260901171555 | 23 | 207 | 6.4 | 17.7 | 0.00 | 0.00 | 0.00 | 58 | 1013.8 |
| 20260901170120 | 23 | 273 | 4.8 | 19.3 | 0.00 | 0.00 | 0.00 | 58 | 1014.0 |
| 20260901164607 | 23 | 215 | 4.8 | 25.7 | 0.00 | 0.03 | 0.00 | 60 | 1014.0 |
| 20260901163100 | 23 | 302 | 4.8 | 20.9 | 0.00 | 0.03 | 0.00 | 63 | 1014.1 |
| 20260901161600 | 22 | 263 | 4.8 | 19.3 | 0.00 | 0.03 | 0.00 | 67 | 1014.1 |
| 20260901160103 | 22 | 279 | 4.8 | 20.9 | 0.00 | 0.03 | 0.00 | 67 | 1014.2 |
| 20260901154615 | 21 | 294 | 6.4 | 20.9 | 0.00 | 0.03 | 0.00 | 70 | 1014.4 |
| 20260901153113 | 21 | 200 | 6.4 | 20.9 | 0.00 | 0.03 | 0.00 | 71 | 1014.3 |
| 20260901151557 | 20 | 257 | 4.8 | 16.1 | 0.00 | 0.03 | 0.00 | 74 | 1014.1 |
| 20260901150103 | 20 | 186 | 4.8 | 12.9 | 0.00 | 0.03 | 0.00 | 80 | 1014.0 |
| 20260901144552 | 18 | 273 | 3.2 | 14.5 | 0.00 | 0.03 | 0.00 | 84 | 1014.0 |
| 20260901143057 | 18 | 235 | 4.8 | 11.3 | 0.00 | 0.03 | 0.00 | 86 | 1013.8 |
| 20260901141604 | 17 | 188 | 3.2 | 8.0 | 0.00 | 0.03 | 0.00 | 91 | 1014.1 |
| 20260901140055 | 16 | 227 | 0.0 | 6.4 | 0.00 | 0.03 | 0.00 | 94 | 1013.9 |
| 20260901134601 | 15 | 227 | 1.6 | 6.4 | 0.00 | 0.03 | 0.00 | 95 | 1014.0 |
| 20260901133105 | 14 | 0 | 0.0 | 0.0 | 0.00 | 0.03 | 0.00 | 99 | 1014.2 |
| 20260901131603 | 13 | 0 | 0.0 | 4.8 | 0.00 | 0.03 | 0.00 | 99 | 1014.2 |
| 20260901124605 | 10 | 0 | 0.0 | 0.0 | 0.00 | 0.03 | 0.00 | 99 | 1014.1 |
| 20260901123055 | 10 | 0 | 0.0 | 0.0 | 0.00 | 0.03 | 0.00 | 98 | 1014.1 |
| 20260901121603 | 10 | 0 | 0.0 | 0.0 | 0.00 | 0.03 | 0.00 | 98 | 1013.9 |
| 20260901120118 | 9 | 0 | 0.0 | 0.0 | 0.00 | 0.03 | 0.00 | 98 | 1013.8 |
| 20260901114556 | 9 | 0 | 0.0 | 0.0 | 0.00 | 0.03 | 0.00 | 98 | 1013.9 |
| 20260901113101 | 9 | 0 | 0.0 | 0.0 | 0.00 | 0.03 | 0.00 | 97 | 1013.6 |
| 20260901111557 | 9 | 0 | 0.0 | 0.0 | 0.00 | 0.03 | 0.00 | 97 | 1013.6 |
| 20260901110058 | 10 | 0 | 0.0 | 0.0 | 0.00 | 0.03 | 0.00 | 97 | 1013.4 |
| 20260901104603 | 10 | 0 | 0.0 | 0.0 | 0.00 | 0.15 | 0.00 | 97 | 1013.4 |
| 20260901103102 | 10 | 0 | 0.0 | 0.0 | 0.00 | 0.15 | 0.00 | 97 | 1013.3 |
| 20260901101556 | 10 | 0 | 0.0 | 0.0 | 0.00 | 0.15 | 0.00 | 98 | 1013.4 |
| 20260901100056 | 10 | 0 | 0.0 | 0.0 | 0.00 | 0.15 | 0.00 | 97 | 1013.4 |
| 20260901094603 | 10 | 0 | 0.0 | 0.0 | 0.00 | 0.64 | 0.00 | 97 | 1013.4 |
| 20260901093059 | 10 | 0 | 0.0 | 0.0 | 0.00 | 0.64 | 0.00 | 97 | 1013.3 |
| 20260901091554 | 11 | 0 | 0.0 | 0.0 | 0.00 | 0.64 | 0.00 | 97 | 1013.1 |
| 20260901084604 | 11 | 0 | 0.0 | 0.0 | 0.00 | 0.64 | 0.00 | 98 | 1013.2 |
| 20260901083057 | 11 | 0 | 0.0 | 0.0 | 0.00 | 0.64 | 0.00 | 97 | 1013.0 |
| 20260901081554 | 11 | 0 | 0.0 | 0.0 | 0.00 | 0.64 | 0.00 | 97 | 1013.1 |
| 20260901080056 | 11 | 0 | 0.0 | 0.0 | 0.00 | 0.64 | 0.00 | 97 | 1013.0 |
| 20260901074604 | 11 | 0 | 0.0 | 0.0 | 0.00 | 0.64 | 0.00 | 97 | 1013.3 |
| 20260901073055 | 11 | 0 | 0.0 | 0.0 | 0.00 | 0.64 | 0.00 | 96 | 1013.4 |
| 20260901071605 | 12 | 0 | 0.0 | 0.0 | 0.00 | 0.64 | 0.00 | 97 | 1013.4 |
| 20260901070106 | 12 | 0 | 0.0 | 0.0 | 0.00 | 0.64 | 0.00 | 96 | 1013.4 |
| 20260901064600 | 12 | 0 | 0.0 | 0.0 | 0.00 | 0.81 | 0.00 | 96 | 1013.3 |
| 20260901063113 | 12 | 0 | 0.0 | 0.0 | 0.00 | 0.81 | 0.00 | 96 | 1013.3 |
| 20260901061621 | 12 | 0 | 0.0 | 0.0 | 0.00 | 0.81 | 0.00 | 96 | 1013.2 |
| 20260901060105 | 13 | 0 | 0.0 | 0.0 | 0.00 | 0.81 | 0.00 | 97 | 1013.1 |
| 20260901054602 | 13 | 0 | 0.0 | 0.0 | 0.00 | 1.07 | 0.00 | 96 | 1013.2 |
| 20260901053100 | 13 | 0 | 0.0 | 0.0 | 0.00 | 1.07 | 0.00 | 96 | 1013.2 |
| 20260901051613 | 13 | 0 | 0.0 | 0.0 | 0.00 | 1.07 | 0.00 | 96 | 1013.2 |
| 20260901050109 | 13 | 0 | 0.0 | 0.0 | 0.00 | 1.07 | 0.00 | 95 | 1013.2 |
| 20260901044604 | 14 | 0 | 0.0 | 0.0 | 0.00 | 1.07 | 1.07 | 96 | 1013.3 |
| 20260901043057 | 14 | 0 | 0.0 | 0.0 | 0.00 | 1.07 | 1.07 | 96 | 1013.3 |
| 20260901041552 | 14 | 0 | 0.0 | 0.0 | 0.00 | 1.07 | 1.07 | 95 | 1013.2 |
| 20260901040052 | 15 | 0 | 0.0 | 0.0 | 0.00 | 1.07 | 1.07 | 95 | 1013.3 |
| 20260901034607 | 15 | 0 | 0.0 | 0.0 | 0.00 | 1.07 | 1.07 | 94 | 1013.2 |